Shaw AFB, SC

5:29 AM EDT on April 28, 2017 (GMT -0400)
Shaw Air Force Base

Weather History for KSSC - January, 2013

Change the Weather History Date:

Saturday, January 12, 2013

  Actual Average Record
Temperature  
Mean Temperature 68 °F -  
Max Temperature 81 °F 54 °F 81 °F (2013)
Min Temperature 55 °F 33 °F 21 °F (1997)
Cooling Degree Days 3    
Growing Degree Days 18 (Base 50)    
Moisture  
Dew Point 58 °F    
Average Humidity 92    
Maximum Humidity 100    
Minimum Humidity 44    
Precipitation  
Precipitation 0.00 in - - ()
Sea Level Pressure  
Sea Level Pressure 30.15 in    
Wind  
Wind Speed 5 mph (SSW)    
Max Wind Speed 10 mph    
Max Gust Speed 17 mph    
Visibility 4 miles    
Events Fog    
Averages and records for this station are not official NWS values.
T = Trace of Precipitation, MM = Missing Value Source: NWS Daily Summary

Daily Weather History Graph

Daily Weather History Graph

Search for Another Location

Airport or City:

Trip Planner

Search our weather history database for the weather conditions in past years. The results will help you decide how hot, cold, wet, or windy it might be!

Date:

Astronomy

Jan. 12, 2013 Rise Set
Actual Time 7:27 AM EST 5:33 PM EST
Civil Twilight 7:00 AM EST 6:00 PM EST
Nautical Twilight 6:29 AM EST 6:31 PM EST
Astronomical Twilight 5:59 AM EST 7:01 PM EST
Moon 7:49 AM EST (1/12) 6:54 PM EST (1/12)
Length of Visible Light 11h 00m
Length of Day
10h 05m
New Moon, 1% of the Moon is Illuminated
Jan 12
New Moon
Jan 18
First Quarter
Jan 26
Full
Feb 3
Last Quarter
Feb 10
New

Hourly Weather History & Observations

Time (EST) Temp. Heat Index Dew Point Humidity Pressure Visibility Wind Dir Wind Speed Gust Speed Precip Events Conditions
12:55 AM 64.4 °F - 57.6 °F 78% 30.16 in 10.0 mi SSW 4.6 mph - N/A   Overcast
1:55 AM 61.5 °F - 57.7 °F 87% 30.16 in 10.0 mi SSW 3.5 mph - N/A   Clear
2:52 AM 59.0 °F - 59.0 °F 100% 30.16 in 4.0 mi SSW 4.6 mph - N/A   Clear
2:55 AM 59.9 °F - 59.0 °F 97% 30.16 in 6.0 mi SSW 4.6 mph - N/A   Clear
2:56 AM 60.8 °F - 59.0 °F 94% 30.16 in 8.0 mi SSW 4.6 mph - N/A   Clear
3:31 AM 59.0 °F - 59.0 °F 100% 30.16 in 4.0 mi SSW 6.9 mph - N/A   Clear
3:55 AM 57.6 °F - 57.4 °F 99% 30.15 in 8.0 mi SSW 5.8 mph - N/A   Clear
4:45 AM 60.8 °F - 60.8 °F 100% 30.14 in 6.0 mi SSW 5.8 mph - N/A   Clear
4:55 AM 59.7 °F - 59.7 °F 100% 30.14 in 6.0 mi SSW 8.1 mph - N/A   Clear
5:21 AM 59.0 °F - 59.0 °F 100% 30.14 in 4.0 mi SSW 8.1 mph - N/A   Clear
5:35 AM 59.0 °F - 59.0 °F 100% 30.14 in 2.5 mi SSW 8.1 mph - N/A   Clear
5:42 AM 59.0 °F - 59.0 °F 100% 30.14 in 1.8 mi SSW 6.9 mph - N/A   Clear
5:44 AM 59.0 °F - 59.0 °F 100% 30.14 in 1.5 mi SSW 6.9 mph - N/A   Clear
5:45 AM 59.0 °F - 59.0 °F 100% 30.14 in 1.2 mi SSW 6.9 mph - N/A   Clear
5:47 AM 59.0 °F - 59.0 °F 100% 30.14 in 1.0 mi SSW 6.9 mph - N/A   Clear
5:50 AM 59.0 °F - 59.0 °F 100% 30.14 in 0.8 mi SSW 6.9 mph - N/A   Clear
5:52 AM 59.0 °F - 59.0 °F 100% 30.14 in 0.8 mi SSW 5.8 mph - N/A   Clear
5:53 AM 59.0 °F - 59.0 °F 100% 30.14 in 0.5 mi SSW 5.8 mph - N/A Fog Fog
5:55 AM 58.8 °F - 58.8 °F 100% 30.14 in 0.5 mi SSW 5.8 mph - N/A Fog Fog
5:57 AM 59.0 °F - 59.0 °F 100% 30.14 in 0.5 mi SSW 5.8 mph - N/A Fog Fog
5:59 AM 59.0 °F - 59.0 °F 100% 30.14 in 0.2 mi SSW 5.8 mph - N/A Fog Fog
6:40 AM 57.2 °F - 57.2 °F 100% 30.15 in 0.2 mi South 4.6 mph - N/A Fog Fog
6:46 AM 57.2 °F - 57.2 °F 100% 30.15 in 0.5 mi South 4.6 mph - N/A Fog Fog
6:48 AM 57.2 °F - 57.2 °F 100% 30.15 in 0.5 mi South 5.8 mph - N/A Fog Fog
6:50 AM 57.2 °F - 57.2 °F 100% 30.15 in 0.5 mi South 6.9 mph - N/A Fog Fog
6:51 AM 57.2 °F - 57.2 °F 100% 30.15 in 0.5 mi South 6.9 mph - N/A Fog Fog
6:55 AM 57.0 °F - 57.0 °F 100% 30.16 in 0.8 mi SSW 5.8 mph - N/A   Mist
7:01 AM 57.2 °F - 57.2 °F 100% 30.16 in 0.5 mi SSW 4.6 mph - N/A Fog Fog
7:03 AM 57.2 °F - 57.2 °F 100% 30.16 in 0.5 mi SSW 4.6 mph - N/A Fog Fog
7:13 AM 57.2 °F - 57.2 °F 100% 30.16 in 0.5 mi SSW 6.9 mph - N/A Fog Fog
7:23 AM 57.2 °F - 57.2 °F 100% 30.16 in 0.2 mi SSW 5.8 mph - N/A Fog Fog
7:27 AM 57.2 °F - 57.2 °F 100% 30.16 in 0.2 mi SSW 5.8 mph - N/A Fog Fog
7:47 AM 55.4 °F - 55.4 °F 100% 30.17 in 0.2 mi SW 4.6 mph - N/A Fog Fog
7:48 AM 55.4 °F - 55.4 °F 100% 30.17 in 0.2 mi SW 4.6 mph - N/A Fog Fog
7:51 AM 55.4 °F - 55.4 °F 100% 30.17 in 0.5 mi SW 4.6 mph - N/A Fog Fog
7:55 AM 55.8 °F - 55.8 °F 100% 30.17 in 0.5 mi SSW 4.6 mph - N/A Fog Fog
8:04 AM 57.2 °F - 57.2 °F 100% 30.17 in 0.5 mi South 4.6 mph - N/A Fog Fog
8:08 AM 57.2 °F - 57.2 °F 100% 30.17 in 0.5 mi South 3.5 mph - N/A Fog Fog
8:11 AM 57.2 °F - 57.2 °F 100% 30.17 in 0.5 mi South 3.5 mph - N/A Fog Fog
8:12 AM 59.0 °F - 59.0 °F 100% 30.17 in 0.5 mi South 3.5 mph - N/A Fog Fog
8:13 AM 59.0 °F - 59.0 °F 100% 30.17 in 0.5 mi South 3.5 mph - N/A Fog Fog
8:15 AM 59.0 °F - 59.0 °F 100% 30.17 in 0.8 mi Calm Calm - N/A   Clear
8:17 AM 59.0 °F - 59.0 °F 100% 30.17 in 1.0 mi Calm Calm - N/A   Clear
8:18 AM 59.0 °F - 59.0 °F 100% 30.17 in 1.2 mi Calm Calm - N/A   Clear
8:19 AM 59.0 °F - 59.0 °F 100% 30.17 in 1.5 mi Calm Calm - N/A   Clear
8:20 AM 59.0 °F - 59.0 °F 100% 30.17 in 1.8 mi Calm Calm - N/A   Clear
8:21 AM 59.0 °F - 59.0 °F 100% 30.17 in 2.0 mi Calm Calm - N/A   Clear
8:23 AM 59.0 °F - 59.0 °F 100% 30.17 in 3.0 mi Calm Calm - N/A   Clear
8:55 AM 61.0 °F - 61.0 °F 100% 30.18 in 9.0 mi SSW 4.6 mph - N/A   Clear
8:57 AM 60.8 °F - 60.8 °F 100% 30.18 in 9.0 mi SSW 5.8 mph - N/A   Partly Cloudy
9:55 AM 65.5 °F - 65.5 °F 100% 30.19 in 10.0 mi SW 6.9 mph - N/A   Clear
10:55 AM 71.1 °F - 57.0 °F 61% 30.18 in 10.0 mi WSW 6.9 mph - N/A   Scattered Clouds
11:55 AM 72.1 °F - 57.0 °F 59% 30.16 in 10.0 mi SW 4.6 mph - N/A   Scattered Clouds
12:55 PM 76.3 °F - 58.5 °F 54% 30.13 in 10.0 mi SW 8.1 mph 17.3 mph N/A   Scattered Clouds
1:55 PM 81.0 °F 81.0 °F 56.8 °F 44% 30.12 in 10.0 mi West 8.1 mph - N/A   Clear
2:55 PM 81.5 °F 81.5 °F 57.6 °F 44% 30.11 in 10.0 mi WNW 10.4 mph - N/A   Partly Cloudy
3:55 PM 79.5 °F - 56.8 °F 46% 30.11 in 10.0 mi WSW 8.1 mph - N/A   Clear
4:55 PM 77.9 °F - 55.8 °F 46% 30.11 in 10.0 mi SSW 5.8 mph - N/A   Partly Cloudy
5:55 PM 69.8 °F - 57.7 °F 65% 30.11 in 10.0 mi South 4.6 mph - N/A   Clear
6:55 PM 66.7 °F - 57.9 °F 73% 30.11 in 10.0 mi SSW 4.6 mph - N/A   Clear
7:55 PM 64.9 °F - 58.3 °F 79% 30.10 in 10.0 mi SW 3.5 mph - N/A   Clear
8:55 PM 63.0 °F - 57.9 °F 84% 30.10 in 10.0 mi SW 3.5 mph - N/A   Clear
9:55 PM 62.4 °F - 57.6 °F 84% 30.11 in 10.0 mi SW 4.6 mph - N/A   Clear
10:55 PM 61.0 °F - 57.7 °F 89% 30.12 in 10.0 mi Calm Calm - N/A   Clear
11:55 PM 59.5 °F - 58.1 °F 95% 30.12 in 10.0 mi Calm Calm - N/A   Clear